Regional Weather Roundup
Issued by NWS

Home | Current Version | Previous Version | Graphics & Text | Print | Product List | Glossary On
Versions: 1 2 3 4 5 6 7 8 9 10 11 12 13 14 15 16 17 18 19 20 21 22 23 24 25 26 27 28 29 30 31 32 33 34 35 36 37 38 39 40 41 42 43 44 45 46 47 48 49 50
000
ASUS43 KMPX 010110
RWRMN
WEATHER ROUNDUP FOR MINNESOTA
NATIONAL WEATHER SERVICE TWIN CITIES/CHANHASSEN MN
800 PM CDT FRI OCT 31 2014


NOTE: "FAIR" INDICATES FEW OR NO CLOUDS BELOW 12,000 FEET WITH NO
SIGNIFICANT WEATHER AND/OR OBSTRUCTIONS TO VISIBILITY. N/A MEANS
CURRENT SKY AND/OR WEATHER CONDITIONS ARE NOT AVAILABLE.

MNZ060>063-068>070-010200-
   Twin Cities Metro

CITY           SKY/WX    TMP DP  RH WIND       PRES   REMARKS
TWIN CITIES    FAIR      33  16  49 NE6       30.49F WCI  28
ST PAUL        FAIR      33  18  53 NE3       30.51F
CRYSTAL        CLEAR     28  15  58 CALM      30.48F
BLAINE         CLEAR     28  18  64 CALM      30.49F
LAKEVILLE      CLEAR     27  18  69 CALM      30.48S
EDEN PRAIRIE   CLEAR     33  15  47 CALM      30.48S
SOUTH ST PAUL  FAIR      31  19  61 CALM      30.50S
LAKE ELMO      FAIR      28  19  69 CALM      30.50F
$$
MNZ001>005-007-008-013>017-022>024-027-028-010200-
   Northwest Minnesota

CITY           SKY/WX    TMP DP  RH WIND       PRES   REMARKS
BEMIDJI        FAIR      28  15  57 SE7       30.42F WCI  21
HALLOCK        PTCLDY    32  19  59 SE13      30.36F WCI  22
ROSEAU         CLEAR     27  19  74 SE7       30.39F WCI  19
WARROAD        CLEAR     30  21  69 SE7       30.40F WCI  23
THIEF RVR FALL CLEAR     30  19  64 SE8       30.39F WCI  23
CROOKSTON      CLEAR     27  19  74 SE9       30.40F WCI  17
FOSSTON        CLEAR     28  21  74 SE5       30.41F WCI  23
DETROIT LAKES  CLEAR     32  23  69 S6        30.42F WCI  26
MOORHEAD       CLEAR     30  21  69 SE8       30.42F WCI  23
PARK RAPIDS    CLEAR     29  14  53 S5        30.42F WCI  24
MAHNOMEN       FAIR      28  19  69 S7        30.41S WCI  21
$$
MNZ006-009>011-018-025>026-010200-
   North Central Minnesota

CITY           SKY/WX    TMP DP  RH WIND       PRES   REMARKS
BAUDETTE       CLEAR     29  16  58 S5        30.42F WCI  24
FLAG ISLAND    CLEAR     36  27  69 SE14      30.38F
INTL FALLS     CLEAR     21  17  84 SE3       30.44F
WASKISH        CLEAR     25  21  86 CALM      30.43F
BIG FORK       CLEAR     25  18  74 CALM      30.45F
LONGVILLE      CLEAR     25  18  74 CALM      30.46S
GRAND RAPIDS   CLEAR     27  16  63 CALM      30.45F
CRANE LAKE     CLEAR     23  21  93 CALM      30.48S
ORR            CLEAR     25  18  74 CALM      30.44S
COOK           CLEAR     25  19  80 CALM      30.46S
WALKER         FAIR      31  19  61 SE3       30.43F
$$
MNZ012-019>021-037-010200-
   Northeast Minnesota

CITY           SKY/WX    TMP DP  RH WIND       PRES   REMARKS
DULUTH         CLEAR     30  12  47 CALM      30.46R
ELY            CLEAR     25  19  80 CALM      30.46S
HIBBING        CLEAR     24  15  68 CALM      30.45F
EVELETH        CLEAR     27  19  74 CALM      30.47F
DULUTH HARBOR  CLEAR     36  21  55 CALM      30.50S
TWO HARBORS    CLEAR     28  21  74 CALM      30.46S
SILVER BAY     CLEAR     27  21  80 CALM      30.46S
GRAND MARAIS     N/A     28  21  75 NW3       30.49F
G MARAIS ARPRT CLEAR     21  16  79 NW6       30.43F WCI  14
$$
MNZ029>031-032-039>041-046>048-054>057-064-010200-
   West Central Minnesota

CITY           SKY/WX    TMP DP  RH WIND       PRES   REMARKS
FERGUS FALLS   CLEAR     27  18  69 S7        30.45F WCI  19
WHEATON        CLEAR     23  18  80 SE8       30.45F WCI  14
MORRIS         CLEAR     27  21  80 S5        30.44F WCI  21
ALEXANDRIA     CLEAR     30  16  56 SE8       30.45F WCI  22
ELBOW LAKE     FAIR      29  21  71 SE5       30.43F WCI  24
WADENA         CLEAR     27  16  63 SE3       30.43F
GLENWOOD       CLEAR     27  18  69 SE6       30.45F WCI  20
APPLETON       CLEAR     30  19  64 SE5       30.45F WCI  25
BENSON         CLEAR     30  19  64 S5        30.45F WCI  25
ORTONVILLE     PTCLDY    28  19  69 SE8       30.43F WCI  20
MADISON        CLEAR     32  23  69 SE7       30.45S WCI  26
WILLMAR        FAIR      28  18  64 CALM      30.48S
$$
MNZ033>034-036-042>043-049>051-058-059-010200-
   Central Minnesota

CITY           SKY/WX    TMP DP  RH WIND       PRES   REMARKS
ST CLOUD       CLEAR     28  17  63 CALM      30.48S
SAUK CENTRE    FAIR      29  17  60 E3        30.46S
PAYNESVILLE    CLEAR     25  16  70 CALM      30.47F
AITKIN         CLEAR     27  19  74 CALM      30.46S
PINE RIVER     CLEAR     23  19  86 CALM      30.47F
BRAINERD       CLEAR     25  16  68 CALM      30.47S
STAPLES        CLEAR     27  16  63 CALM      30.45F
LONG PRAIRIE   FAIR      28  19  69 CALM      30.46S
LITTLE FALLS   CLEAR     27  18  69 CALM      30.48S
LITCHFIELD     CLEAR     30  16  55 CALM      30.48F
BUFFALO        CLEAR     26  16  63 CALM      30.49F
MAPLE LAKE     CLEAR     27  20  75 CALM      30.49S
$$
MNZ037-044-045-052-053-010200-
   East Central Minnesota

CITY           SKY/WX    TMP DP  RH WIND       PRES   REMARKS
PRINCETON      CLEAR     28  18  64 CALM      30.48F
MORA           CLEAR     27  19  74 CALM      30.50F
CAMBRIDGE      CLEAR     27  16  63 CALM      30.47F
RUSH CITY      CLEAR     25  17  71 CALM      30.48F
MOOSE LAKE     CLEAR     28  18  64 CALM      30.46S
HINCKLEY       FAIR      28  19  69 CALM      30.48F
CLOQUET        CLEAR     27  16  63 CALM      30.46F
MCGREGOR       CLEAR     28  19  69 CALM      30.47S
$$
MNZ071>073-080-081-089-090-097-098-010200-
   Southwest Minnesota

CITY           SKY/WX    TMP DP  RH WIND       PRES   REMARKS
MONTEVIDEO     CLEAR     28  21  74 S5        30.47F WCI  23
GRANITE FALLS  CLEAR     29  17  60 SE3       30.48F
CANBY          PTCLDY    28  20  71 SE6       30.45F WCI  22
MARSHALL       CLEAR     30  16  55 S6        30.44F WCI  24
REDWOOD FALLS  CLEAR     31  16  54 SE6       30.47F WCI  25
OLIVIA         CLEAR     32  19  59 CALM      30.47S
PIPESTONE      CLEAR     30  16  55 SE5       30.42F WCI  25
WINDOM         CLEAR     25  16  68 CALM      30.46F
WORTHINGTON    CLEAR     28  14  54 E3        30.45F
JACKSON        CLEAR     30  14  51 CALM      30.46S
TRACY          CLEAR     30  18  59 S3        30.46F
SLAYTON        CLEAR     29  15  56 CALM      30.45F
$$
MNZ065>067-074>077-082>085-091>093-010200-
   South Central Minnesota

CITY           SKY/WX    TMP DP  RH WIND       PRES   REMARKS
MANKATO        CLEAR     30  14  51 CALM      30.48S
NEW ULM        CLEAR     32  16  51 CALM      30.48S
ST JAMES       FAIR      32  16  51 CALM      30.48F
FAIRMONT       CLEAR     28  12  50 CALM      30.47S
GLENCOE        CLEAR     29  17  62 CALM      30.48S
FARIBAULT      CLEAR     23  18  80 CALM      30.48S
OWATONNA       CLEAR     21  18  86 CALM      30.47S
WASECA         CLEAR     25  12  58 CALM      30.49S
ALBERT LEA     CLEAR     28  18  64 N3        30.46F
$$
MNZ078>079-086>088-094>096-010200-
   Southeast Minnesota

CITY           SKY/WX    TMP DP  RH WIND       PRES   REMARKS
ROCHESTER      CLEAR     28  17  63 N8        30.47R WCI  20
RED WING       CLEAR     28  18  64 N3        30.49S
STANTON        CLEAR     32  18  55 CALM      30.48S
DODGE CENTER   PTCLDY    28  19  69 N3        30.46S
WINONA         CLEAR     34  23  64 CALM      30.49R
AUSTIN         CLEAR     28  19  69 N3        30.46S
PRESTON        CLEAR     28  18  66 N5        30.46S WCI  23
$$
ABBREVIATIONS USED IN REMARKS
   TC - TEMPERATURES IN CELSIUS
  WCI - WIND CHILL INDEX
   HX - HEAT INDEX
  VSB - VISIBILITY
$$



USA.gov is the U.S. government's official web portal to all federal, state and local government web resources and services.